This is the latest recevied weather packets stored in our database for station/object WX7FGZ-3. If no packets are shown the sender has not sent any weather packets the latest 10 day(s).
| Time | Temp. | Humidity | Pressure | Rain* | Wind** | Luminosity | Snow |
|---|---|---|---|---|---|---|---|
| 1778025971 | 8.89° C | 55% | 1004.4 hPa | 0 mm | - | - | - |
| 1778025070 | 10° C | 46% | 1003.9 hPa | 0 mm | - | - | - |
| 1778024770 | 10.56° C | 47% | 1003.8 hPa | 0 mm | - | - | - |
| 1778024470 | 10.56° C | 47% | 1003.5 hPa | 0 mm | - | - | - |
| 1778024169 | 10.56° C | 48% | 1003.2 hPa | 0 mm | - | - | - |
| 1778023269 | 11.67° C | 49% | 1003 hPa | 0 mm | - | - | - |
| 1778022969 | 11.67° C | 48% | 1002.9 hPa | 0 mm | - | - | - |
| 1778022668 | 12.22° C | 48% | 1003.1 hPa | 0 mm | - | - | - |
| 1778022368 | 12.22° C | 50% | 1002.9 hPa | 0 mm | - | - | - |
| 1778022068 | 12.22° C | 49% | 1002.9 hPa | 0 mm | - | - | - |
| 1778021767 | 12.22° C | 48% | 1002.9 hPa | 0 mm | - | - | - |
| 1778021467 | 12.78° C | 46% | 1003 hPa | 0 mm | - | - | - |
| 1778021167 | 13.33° C | 47% | 1003 hPa | 0 mm | - | - | - |
| 1778020867 | 12.78° C | 48% | 1003.1 hPa | 0 mm | - | - | - |
| 1778020566 | 12.22° C | 49% | 1002.9 hPa | 0 mm | - | - | - |
| 1778019965 | 11.67° C | 52% | 1003.1 hPa | 0 mm | - | - | - |
| 1778019665 | 11.67° C | 52% | 1003.3 hPa | 0 mm | - | - | - |
| 1778019365 | 11.67° C | 54% | 1003.2 hPa | 0 mm | - | - | - |
| 1778019065 | 11.67° C | 53% | 1003.4 hPa | 0 mm | - | - | - |
| 1778018764 | 11.67° C | 52% | 1003.4 hPa | 0 mm | - | - | - |
| 1778018464 | 12.22° C | 50% | 1003.8 hPa | 0 mm | - | - | - |
| 1778017863 | 12.22° C | 44% | 1003.7 hPa | 0 mm | - | - | - |
| 1778017563 | 12.22° C | 44% | 1003.8 hPa | 0 mm | - | - | - |
| 1778017263 | 12.78° C | 41% | 1003.8 hPa | 0 mm | - | - | - |
| 1778016962 | 13.33° C | 39% | 1003.9 hPa | 0 mm | - | - | - |
* Rain latest hour (hover to see other rain measurements)
** Current wind speed in m/s (hover to see current wind gust speed)